Weather Roundup
Issued by NWS Springfield, MO

Home | Current Version | Previous Version | Text Only | Print | Product List | Glossary On
Versions: 1 2 3 4 5 6 7 8 9 10 11 12 13 14 15 16 17 18 19 20 21 22 23 24 25 26 27 28 29 30 31 32 33 34 35 36 37 38 39 40 41 42 43 44 45 46 47 48 49 50
193
NZUS99 KSGF 222307
HRRSGF

HOURLY WEATHER
NATIONAL WEATHER SERVICE SPRINGFIELD MO
600 PM CDT TUE AUG 22 2017

......SGF CWA......

CITY           SKY/WX    TMP DP  RH WIND       PRES   REMARKS
SPRINGFIELD    CLOUDY    79  71  76 N8        30.05S
JOPLIN         CLOUDY    80  74  81 N7        30.06S
WEST PLAINS    PTSUNNY   81  68  64 N5        30.05S
ROLLA          MOSUNNY   79  66  64 NW10      30.05S
OSAGE BEACH    MOSUNNY   79  67  66 N6        30.05S
BRANSON        PTSUNNY   82  72  69 NE3       30.06S

......SURROUNDING SGF CWA......

CITY           SKY/WX    TMP DP  RH WIND       PRES   REMARKS
CHANUTE        SUNNY     83  66  56 N10       30.07F
PARSONS        PTSUNNY   81  70  69 N6        30.07S
COFFEYVILLE    PTSUNNY   81  71  71 N13       30.05S
EMPORIA        SUNNY     81  61  50 NE14      30.09F
GROVE OK       MOSUNNY   86  73  66 N10       30.04S HX  93
ROGERS AR      CLOUDY    81  72  74 N6        30.06S
HARRISON AR    CLOUDY    83  70  64 NW9       30.05S
NEAR YELLVILLE SUNNY     84  66  54 N8        30.01S

......KANSAS AND MISSOURI......

CITY           SKY/WX    TMP DP  RH WIND       PRES   REMARKS
KANSAS CTY INT MOSUNNY   77  56  48 N12       30.09F
DOWNTOWN KC    SUNNY     79  61  53 N9        30.07S
COLUMBIA       MOSUNNY   80  61  52 NW12      30.04S
SEDALIA        SUNNY     81  64  56 N12       30.07S
ST JOSEPH      SUNNY     76  56  49 N9        30.10F
ST LOUIS       MOSUNNY   82  67  60 N10       29.99S
SPIRIT OF STL  PTSUNNY   80  65  59 NW9       29.99R
KIRKSVILLE     SUNNY     78  50  37 N14       30.07S
WICHITA        MOSUNNY   84  57  39 NE20      30.08S
TOPEKA         SUNNY     78  58  49 N10       30.10S
OLATHE         MOSUNNY   78  61  55 NW9       30.09S

......TENNESSEE......

CITY           SKY/WX    TMP DP  RH WIND       PRES   REMARKS
MEMPHIS        LGT RAIN  86  75  69 W16G25    29.95R HX  95
NASHVILLE      PTSUNNY   88  70  55 SW9       29.92F HX  93

......ARKANSAS.......

CITY           SKY/WX    TMP DP  RH WIND       PRES   REMARKS
FAYETTEVILLE   CLOUDY    82  74  76 N5        30.03F
FT SMITH       SUNNY     91  72  53 CALM      29.96F HX  98
LITTLE ROCK    CLOUDY    85  75  72 W9        29.96F HX  93

......OKLAHOMA.......

CITY           SKY/WX    TMP DP  RH WIND       PRES   REMARKS
TULSA          CLOUDY    89  74  60 NE7       29.99R HX  98
PONCA CITY     CLOUDY    81  68  64 NE14G28   30.05R
MCALESTER      MOSUNNY   87  69  54 NE3       29.97F HX  91
OKLAHOMA CITY  PTSUNNY   89  69  51 CALM      30.00R HX  93

......IOWA............

CITY           SKY/WX    TMP DP  RH WIND       PRES   REMARKS
DES MOINES     MOSUNNY   76  47  35 NW13G25   30.09S
QUAD CITIES    SUNNY     76  50  40 NW15G24   30.01R

......ILLINOIS........

CITY           SKY/WX    TMP DP  RH WIND       PRES   REMARKS
QUINCY         SUNNY     77  53  43 NW14      30.02S
CHICAGO        MOSUNNY   78  50  37 NW15G25   29.93R




USA.gov is the U.S. government's official web portal to all federal, state and local government web resources and services.